contact:dominique.lefevre@mio.osupytheas.fr, maurice.libes@osupytheas.fr, didier.mallarino@osupytheas.fr
Project:EMSO http://www.emso-fr.org/EMSO-France
Depth: 2436.0 m
Title:EMSO Ligure Ouest : Data MII capteur MICROCAT
DateTime_Computer,Latitude,Longitude,Temperature,Conductivity,Pressure,DateTime_Instrument
DateTime_Computer,Latitude,Longitude,degC,S m-1,dbar,DateTime_Instrument
2017-12-01T00:00:17Z,42.805,6.029,13.2934,4.59959,2472.002,2017-12-01T02:01:46Z
2017-12-01T00:03:20Z,42.805,6.029,13.2940,4.59960,2472.01,2017-12-01T02:04:49Z
2017-12-01T00:06:23Z,42.805,6.029,13.2940,4.59959,2472.002,2017-12-01T02:07:52Z
2017-12-01T00:09:26Z,42.805,6.029,13.2938,4.59961,2472.024,2017-12-01T02:10:55Z
2017-12-01T00:12:29Z,42.805,6.029,13.2938,4.59960,2472.002,2017-12-01T02:13:58Z
2017-12-01T00:15:32Z,42.805,6.029,13.2936,4.59961,2471.987,2017-12-01T02:17:00Z
2017-12-01T00:18:35Z,42.805,6.029,13.2940,4.59959,2472.002,2017-12-01T02:20:03Z
2017-12-01T00:21:38Z,42.805,6.029,13.2940,4.59958,2471.979,2017-12-01T02:23:06Z
2017-12-01T00:24:40Z,42.805,6.029,13.2938,4.59962,2471.987,2017-12-01T02:26:09Z
2017-12-01T00:27:43Z,42.805,6.029,13.2937,4.59959,2471.987,2017-12-01T02:29:12Z
2017-12-01T00:30:46Z,42.805,6.029,13.2935,4.59960,2472.002,2017-12-01T02:32:15Z
2017-12-01T00:33:49Z,42.805,6.029,13.2937,4.59961,2471.987,2017-12-01T02:35:18Z
2017-12-01T00:36:52Z,42.805,6.029,13.2942,4.59962,2471.987,2017-12-01T02:38:21Z
2017-12-01T00:39:55Z,42.805,6.029,13.2939,4.59961,2471.964,2017-12-01T02:41:24Z
2017-12-01T00:42:58Z,42.805,6.029,13.2940,4.59960,2472.002,2017-12-01T02:44:26Z
2017-12-01T00:46:01Z,42.805,6.029,13.2934,4.59958,2471.987,2017-12-01T02:47:29Z
2017-12-01T00:49:04Z,42.805,6.029,13.2940,4.59961,2472.002,2017-12-01T02:50:32Z
2017-12-01T00:52:06Z,42.805,6.029,13.2935,4.59958,2472.002,2017-12-01T02:53:35Z
2017-12-01T00:55:09Z,42.805,6.029,13.2938,4.59958,2472.01,2017-12-01T02:56:38Z
2017-12-01T00:58:12Z,42.805,6.029,13.2940,4.59958,2472.024,2017-12-01T02:59:41Z
2017-12-01T01:01:15Z,42.805,6.029,13.2939,4.59958,2472.024,2017-12-01T03:02:44Z
2017-12-01T01:04:18Z,42.805,6.029,13.2940,4.59958,2471.987,2017-12-01T03:05:47Z
2017-12-01T01:07:21Z,42.805,6.029,13.2940,4.59958,2472.024,2017-12-01T03:08:50Z
2017-12-01T01:10:24Z,42.805,6.029,13.2935,4.59957,2472.047,2017-12-01T03:11:52Z
2017-12-01T01:13:27Z,42.805,6.029,13.2939,4.59956,2472.047,2017-12-01T03:14:55Z
2017-12-01T01:16:30Z,42.805,6.029,13.2939,4.59956,2472.01,2017-12-01T03:17:58Z
2017-12-01T01:19:32Z,42.805,6.029,13.2941,4.59958,2472.024,2017-12-01T03:21:01Z
2017-12-01T01:22:35Z,42.805,6.029,13.2940,4.59957,2472.01,2017-12-01T03:24:04Z
2017-12-01T01:25:38Z,42.805,6.029,13.2939,4.59958,2472.01,2017-12-01T03:27:07Z
2017-12-01T01:28:41Z,42.805,6.029,13.2940,4.59959,2472.01,2017-12-01T03:30:10Z
2017-12-01T01:31:44Z,42.805,6.029,13.2937,4.59957,2472.002,2017-12-01T03:33:13Z
2017-12-01T01:34:47Z,42.805,6.029,13.2935,4.59957,2472.032,2017-12-01T03:36:16Z
2017-12-01T01:37:50Z,42.805,6.029,13.2938,4.59958,2472.024,2017-12-01T03:39:18Z
2017-12-01T01:40:53Z,42.805,6.029,13.2940,4.59958,2472.069,2017-12-01T03:42:21Z
2017-12-01T01:43:55Z,42.805,6.029,13.2935,4.59960,2472.024,2017-12-01T03:45:24Z
2017-12-01T01:46:58Z,42.805,6.029,13.2942,4.59958,2472.055,2017-12-01T03:48:27Z
2017-12-01T01:50:01Z,42.805,6.029,13.2937,4.59958,2472.047,2017-12-01T03:51:30Z
2017-12-01T01:53:04Z,42.805,6.029,13.2937,4.59958,2472.055,2017-12-01T03:54:33Z
2017-12-01T01:56:07Z,42.805,6.029,13.2939,4.59960,2472.024,2017-12-01T03:57:36Z
2017-12-01T01:59:10Z,42.805,6.029,13.2939,4.59958,2472.047,2017-12-01T04:00:39Z
2017-12-01T02:02:13Z,42.805,6.029,13.2943,4.59957,2472.055,2017-12-01T04:03:41Z
2017-12-01T02:05:16Z,42.805,6.029,13.2939,4.59960,2472.047,2017-12-01T04:06:44Z
2017-12-01T02:08:19Z,42.805,6.029,13.2937,4.59958,2472.069,2017-12-01T04:09:47Z
2017-12-01T02:11:21Z,42.805,6.029,13.2941,4.59958,2472.069,2017-12-01T04:12:50Z
2017-12-01T02:14:24Z,42.805,6.029,13.2939,4.59957,2472.032,2017-12-01T04:15:53Z
2017-12-01T02:17:27Z,42.805,6.029,13.2939,4.59957,2472.032,2017-12-01T04:18:56Z
2017-12-01T02:20:30Z,42.805,6.029,13.2938,4.59957,2472.069,2017-12-01T04:21:59Z
2017-12-01T02:23:33Z,42.805,6.029,13.2937,4.59956,2472.069,2017-12-01T04:25:02Z
2017-12-01T02:26:36Z,42.805,6.029,13.2935,4.59961,2472.1,2017-12-01T04:28:05Z
2017-12-01T02:29:39Z,42.805,6.029,13.2935,4.59959,2472.092,2017-12-01T04:31:07Z
2017-12-01T02:32:42Z,42.805,6.029,13.2939,4.59958,2472.055,2017-12-01T04:34:10Z
2017-12-01T02:35:45Z,42.805,6.029,13.2938,4.59960,2472.092,2017-12-01T04:37:13Z
2017-12-01T02:38:47Z,42.805,6.029,13.2936,4.59958,2472.069,2017-12-01T04:40:16Z
2017-12-01T02:41:50Z,42.805,6.029,13.2933,4.59961,2472.055,2017-12-01T04:43:19Z
2017-12-01T02:44:53Z,42.805,6.029,13.2939,4.59957,2472.115,2017-12-01T04:46:22Z
2017-12-01T02:47:56Z,42.805,6.029,13.2941,4.59958,2472.092,2017-12-01T04:49:25Z
2017-12-01T02:50:59Z,42.805,6.029,13.2940,4.59961,2472.092,2017-12-01T04:52:28Z
2017-12-01T02:54:02Z,42.805,6.029,13.2938,4.59959,2472.069,2017-12-01T04:55:31Z
2017-12-01T02:57:05Z,42.805,6.029,13.2939,4.59962,2472.077,2017-12-01T04:58:33Z
2017-12-01T03:00:08Z,42.805,6.029,13.2940,4.59959,2472.092,2017-12-01T05:01:36Z
2017-12-01T03:03:11Z,42.805,6.029,13.2942,4.59961,2472.092,2017-12-01T05:04:39Z
2017-12-01T03:06:13Z,42.805,6.029,13.2943,4.59974,2472.077,2017-12-01T05:07:42Z
2017-12-01T03:09:16Z,42.805,6.029,13.2944,4.59962,2472.123,2017-12-01T05:10:45Z
2017-12-01T03:12:19Z,42.805,6.029,13.2939,4.59958,2472.092,2017-12-01T05:13:48Z
2017-12-01T03:15:22Z,42.805,6.029,13.2938,4.59956,2472.115,2017-12-01T05:16:51Z
2017-12-01T03:18:25Z,42.805,6.029,13.2945,4.59957,2472.123,2017-12-01T05:19:54Z
2017-12-01T03:21:28Z,42.805,6.029,13.2941,4.59958,2472.137,2017-12-01T05:22:57Z
2017-12-01T03:24:31Z,42.805,6.029,13.2940,4.59957,2472.115,2017-12-01T05:25:59Z
2017-12-01T03:27:34Z,42.805,6.029,13.2934,4.59957,2472.115,2017-12-01T05:29:02Z
2017-12-01T03:30:37Z,42.805,6.029,13.2936,4.59968,2472.16,2017-12-01T05:32:05Z
2017-12-01T03:33:39Z,42.805,6.029,13.2937,4.59957,2472.077,2017-12-01T05:35:08Z
2017-12-01T03:36:42Z,42.805,6.029,13.2938,4.59956,2472.137,2017-12-01T05:38:11Z
2017-12-01T03:39:45Z,42.805,6.029,13.2938,4.59957,2472.137,2017-12-01T05:41:14Z
2017-12-01T03:42:48Z,42.805,6.029,13.2940,4.59955,2472.152,2017-12-01T05:44:17Z
2017-12-01T03:45:51Z,42.805,6.029,13.2939,4.59957,2472.123,2017-12-01T05:47:20Z
2017-12-01T03:48:54Z,42.805,6.029,13.2942,4.59958,2472.16,2017-12-01T05:50:23Z
2017-12-01T03:51:57Z,42.805,6.029,13.2940,4.59964,2472.145,2017-12-01T05:53:25Z
2017-12-01T03:55:00Z,42.805,6.029,13.2939,4.59958,2472.123,2017-12-01T05:56:28Z
2017-12-01T03:58:03Z,42.805,6.029,13.2939,4.59956,2472.16,2017-12-01T05:59:31Z
2017-12-01T04:01:05Z,42.805,6.029,13.2941,4.59959,2472.16,2017-12-01T06:02:34Z
2017-12-01T04:04:08Z,42.805,6.029,13.2943,4.59960,2472.137,2017-12-01T06:05:37Z
2017-12-01T04:07:11Z,42.805,6.029,13.2939,4.59963,2472.16,2017-12-01T06:08:40Z
2017-12-01T04:10:14Z,42.805,6.029,13.2940,4.59970,2472.123,2017-12-01T06:11:43Z
2017-12-01T04:13:17Z,42.805,6.029,13.2940,4.59956,2472.137,2017-12-01T06:14:46Z
2017-12-01T04:16:20Z,42.805,6.029,13.2939,4.59958,2472.182,2017-12-01T06:17:49Z
2017-12-01T04:19:23Z,42.805,6.029,13.2939,4.59958,2472.137,2017-12-01T06:20:51Z
2017-12-01T04:22:26Z,42.805,6.029,13.2939,4.59957,2472.137,2017-12-01T06:23:54Z
2017-12-01T04:25:28Z,42.805,6.029,13.2937,4.59956,2472.16,2017-12-01T06:26:57Z
2017-12-01T04:28:31Z,42.805,6.029,13.2939,4.59957,2472.145,2017-12-01T06:30:00Z
2017-12-01T04:31:34Z,42.805,6.029,13.2934,4.59961,2472.182,2017-12-01T06:33:03Z
2017-12-01T04:34:37Z,42.805,6.029,13.2938,4.59955,2472.182,2017-12-01T06:36:06Z
2017-12-01T04:37:40Z,42.805,6.029,13.2937,4.59957,2472.16,2017-12-01T06:39:09Z
2017-12-01T04:40:43Z,42.805,6.029,13.2935,4.59958,2472.145,2017-12-01T06:42:12Z
2017-12-01T04:43:46Z,42.805,6.029,13.2936,4.59958,2472.137,2017-12-01T06:45:15Z
2017-12-01T04:46:49Z,42.805,6.029,13.2939,4.59956,2472.16,2017-12-01T06:48:17Z
2017-12-01T04:49:52Z,42.805,6.029,13.2938,4.59956,2472.168,2017-12-01T06:51:20Z
2017-12-01T04:52:54Z,42.805,6.029,13.2935,4.59955,2472.137,2017-12-01T06:54:23Z
2017-12-01T04:55:57Z,42.805,6.029,13.2939,4.59955,2472.137,2017-12-01T06:57:26Z
2017-12-01T04:59:00Z,42.805,6.029,13.2940,4.59957,2472.145,2017-12-01T07:00:29Z
2017-12-01T05:02:03Z,42.805,6.029,13.2938,4.59954,2472.168,2017-12-01T07:03:32Z
2017-12-01T05:05:06Z,42.805,6.029,13.2942,4.59955,2472.123,2017-12-01T07:06:35Z
2017-12-01T05:08:09Z,42.805,6.029,13.2943,4.59961,2472.16,2017-12-01T07:09:38Z
2017-12-01T05:11:12Z,42.805,6.029,13.2938,4.59958,2472.16,2017-12-01T07:12:40Z
2017-12-01T05:14:15Z,42.805,6.029,13.2939,4.59958,2472.137,2017-12-01T07:15:43Z
2017-12-01T05:17:18Z,42.805,6.029,13.2939,4.59965,2472.115,2017-12-01T07:18:46Z
2017-12-01T05:20:20Z,42.805,6.029,13.2935,4.59962,2472.182,2017-12-01T07:21:49Z
2017-12-01T05:23:23Z,42.805,6.029,13.2939,4.59958,2472.168,2017-12-01T07:24:52Z
2017-12-01T05:26:26Z,42.805,6.029,13.2939,4.59962,2472.137,2017-12-01T07:27:55Z
2017-12-01T05:29:29Z,42.805,6.029,13.2940,4.59963,2472.145,2017-12-01T07:30:58Z
2017-12-01T05:32:32Z,42.805,6.029,13.2937,4.59960,2472.145,2017-12-01T07:34:01Z
2017-12-01T05:35:35Z,42.805,6.029,13.2936,4.59960,2472.16,2017-12-01T07:37:04Z
2017-12-01T05:38:38Z,42.805,6.029,13.2940,4.59960,2472.168,2017-12-01T07:40:06Z
2017-12-01T05:41:41Z,42.805,6.029,13.2939,4.59959,2472.137,2017-12-01T07:43:09Z
2017-12-01T05:44:44Z,42.805,6.029,13.2938,4.59966,2472.145,2017-12-01T07:46:12Z
2017-12-01T05:47:46Z,42.805,6.029,13.2939,4.59964,2472.16,2017-12-01T07:49:15Z
2017-12-01T05:50:49Z,42.805,6.029,13.2941,4.59964,2472.182,2017-12-01T07:52:18Z
2017-12-01T05:53:52Z,42.805,6.029,13.2935,4.59962,2472.168,2017-12-01T07:55:21Z
2017-12-01T05:56:55Z,42.805,6.029,13.2935,4.59957,2472.137,2017-12-01T07:58:24Z
2017-12-01T05:59:58Z,42.805,6.029,13.2939,4.59958,2472.182,2017-12-01T08:01:27Z
2017-12-01T06:03:01Z,42.805,6.029,13.2942,4.59957,2472.145,2017-12-01T08:04:30Z
2017-12-01T06:06:04Z,42.805,6.029,13.2942,4.59958,2472.205,2017-12-01T08:07:32Z
2017-12-01T06:09:07Z,42.805,6.029,13.2939,4.59962,2472.16,2017-12-01T08:10:35Z
2017-12-01T06:12:09Z,42.805,6.029,13.2940,4.59961,2472.16,2017-12-01T08:13:38Z
2017-12-01T06:15:12Z,42.805,6.029,13.2940,4.59992,2472.16,2017-12-01T08:16:41Z
2017-12-01T06:18:15Z,42.805,6.029,13.2939,4.59965,2472.182,2017-12-01T08:19:44Z
2017-12-01T06:21:18Z,42.805,6.029,13.2945,4.59981,2472.16,2017-12-01T08:22:47Z
2017-12-01T06:24:21Z,42.805,6.029,13.2938,4.59965,2472.123,2017-12-01T08:25:50Z
2017-12-01T06:27:24Z,42.805,6.029,13.2943,4.59963,2472.145,2017-12-01T08:28:53Z
2017-12-01T06:30:27Z,42.805,6.029,13.2939,4.59963,2472.137,2017-12-01T08:31:56Z
2017-12-01T06:33:30Z,42.805,6.029,13.2939,4.59961,2472.115,2017-12-01T08:34:58Z
2017-12-01T06:36:33Z,42.805,6.029,13.2936,4.59965,2472.137,2017-12-01T08:38:01Z
2017-12-01T06:39:35Z,42.805,6.029,13.2940,4.59964,2472.137,2017-12-01T08:41:04Z
2017-12-01T06:42:38Z,42.805,6.029,13.2940,4.59966,2472.145,2017-12-01T08:44:07Z
2017-12-01T06:45:41Z,42.805,6.029,13.2942,4.59968,2472.123,2017-12-01T08:47:10Z
2017-12-01T06:48:44Z,42.805,6.029,13.2936,4.59969,2472.123,2017-12-01T08:50:13Z
2017-12-01T06:51:47Z,42.805,6.029,13.2940,4.59972,2472.137,2017-12-01T08:53:16Z
2017-12-01T06:54:50Z,42.805,6.029,13.2939,4.59978,2472.145,2017-12-01T08:56:19Z
2017-12-01T06:57:53Z,42.805,6.029,13.2943,4.59986,2472.182,2017-12-01T08:59:22Z
2017-12-01T07:00:56Z,42.805,6.029,13.2936,4.59968,2472.16,2017-12-01T09:02:24Z
2017-12-01T07:03:59Z,42.805,6.029,13.2940,4.59970,2472.16,2017-12-01T09:05:27Z
2017-12-01T07:07:01Z,42.805,6.029,13.2940,4.59965,2472.137,2017-12-01T09:08:30Z
2017-12-01T07:10:04Z,42.805,6.029,13.2942,4.59979,2472.145,2017-12-01T09:11:33Z
2017-12-01T07:13:07Z,42.805,6.029,13.2971,4.59999,2472.137,2017-12-01T09:14:36Z
2017-12-01T07:16:10Z,42.805,6.029,13.2970,4.60053,2472.16,2017-12-01T09:17:39Z
2017-12-01T07:19:13Z,42.805,6.029,13.2976,4.60037,2472.145,2017-12-01T09:20:42Z
2017-12-01T07:22:16Z,42.805,6.029,13.2968,4.60032,2472.1,2017-12-01T09:23:45Z
2017-12-01T07:25:19Z,42.805,6.029,13.2960,4.60042,2472.137,2017-12-01T09:26:48Z
2017-12-01T07:28:22Z,42.805,6.029,13.2956,4.60042,2472.137,2017-12-01T09:29:50Z
2017-12-01T07:31:25Z,42.805,6.029,13.2970,4.60076,2472.1,2017-12-01T09:32:53Z
2017-12-01T07:34:27Z,42.805,6.029,13.2968,4.60009,2472.1,2017-12-01T09:35:56Z
2017-12-01T07:37:30Z,42.805,6.029,13.2957,4.60015,2472.092,2017-12-01T09:38:59Z
2017-12-01T07:40:33Z,42.805,6.029,13.2964,4.60018,2472.115,2017-12-01T09:42:02Z
2017-12-01T07:43:36Z,42.805,6.029,13.2964,4.60028,2472.115,2017-12-01T09:45:05Z
2017-12-01T07:46:39Z,42.805,6.029,13.2958,4.60013,2472.137,2017-12-01T09:48:08Z
2017-12-01T07:49:42Z,42.805,6.029,13.2965,4.60015,2472.137,2017-12-01T09:51:11Z
2017-12-01T07:52:45Z,42.805,6.029,13.2957,4.60042,2472.092,2017-12-01T09:54:13Z
2017-12-01T07:55:48Z,42.805,6.029,13.2955,4.60029,2472.115,2017-12-01T09:57:16Z
2017-12-01T07:58:51Z,42.805,6.029,13.2969,4.60003,2472.137,2017-12-01T10:00:19Z
2017-12-01T08:01:53Z,42.805,6.029,13.2954,4.60004,2472.115,2017-12-01T10:03:22Z
2017-12-01T08:04:56Z,42.805,6.029,13.2957,4.60029,2472.077,2017-12-01T10:06:25Z
2017-12-01T08:07:59Z,42.805,6.029,13.2968,4.60025,2472.092,2017-12-01T10:09:28Z
2017-12-01T08:11:02Z,42.805,6.029,13.2964,4.59998,2472.137,2017-12-01T10:12:31Z
2017-12-01T08:14:05Z,42.805,6.029,13.2957,4.60009,2472.092,2017-12-01T10:15:34Z
2017-12-01T08:17:08Z,42.805,6.029,13.2972,4.60023,2472.137,2017-12-01T10:18:37Z
2017-12-01T08:20:11Z,42.805,6.029,13.2956,4.60004,2472.092,2017-12-01T10:21:40Z
2017-12-01T08:23:14Z,42.805,6.029,13.2956,4.60022,2472.092,2017-12-01T10:24:42Z
2017-12-01T08:26:17Z,42.805,6.029,13.2972,4.59989,2472.115,2017-12-01T10:27:45Z
2017-12-01T08:29:19Z,42.805,6.029,13.2970,4.60010,2472.092,2017-12-01T10:30:48Z
2017-12-01T08:32:22Z,42.805,6.029,13.2961,4.60073,2472.115,2017-12-01T10:33:51Z
2017-12-01T08:35:25Z,42.805,6.029,13.2980,4.60031,2472.069,2017-12-01T10:36:54Z
2017-12-01T08:38:28Z,42.805,6.029,13.2974,4.60060,2472.092,2017-12-01T10:39:57Z
2017-12-01T08:41:31Z,42.805,6.029,13.2993,4.60084,2472.055,2017-12-01T10:43:00Z
2017-12-01T08:44:34Z,42.805,6.029,13.2968,4.60044,2472.107,2017-12-01T10:46:03Z
2017-12-01T08:47:37Z,42.805,6.029,13.2961,4.60035,2472.055,2017-12-01T10:49:06Z
2017-12-01T08:50:40Z,42.805,6.029,13.2957,4.60040,2472.092,2017-12-01T10:52:08Z
2017-12-01T08:53:43Z,42.805,6.029,13.2965,4.60015,2472.092,2017-12-01T10:55:11Z
2017-12-01T08:56:45Z,42.805,6.029,13.2965,4.60003,2472.069,2017-12-01T10:58:14Z
2017-12-01T08:59:48Z,42.805,6.029,13.2963,4.60040,2472.077,2017-12-01T11:01:17Z
2017-12-01T09:02:51Z,42.805,6.029,13.2985,4.60062,2472.092,2017-12-01T11:04:20Z
2017-12-01T09:05:54Z,42.805,6.029,13.2971,4.60061,2472.047,2017-12-01T11:07:23Z
2017-12-01T09:08:57Z,42.805,6.029,13.2986,4.60068,2472.092,2017-12-01T11:10:26Z
2017-12-01T09:12:00Z,42.805,6.029,13.2973,4.60061,2472.062,2017-12-01T11:13:29Z
2017-12-01T09:15:03Z,42.805,6.029,13.2991,4.60059,2472.047,2017-12-01T11:16:32Z
2017-12-01T09:18:06Z,42.805,6.029,13.2996,4.60023,2472.069,2017-12-01T11:19:34Z
2017-12-01T09:21:09Z,42.805,6.029,13.2976,4.60058,2472.062,2017-12-01T11:22:37Z
2017-12-01T09:24:12Z,42.805,6.029,13.2997,4.60054,2472.069,2017-12-01T11:25:40Z
2017-12-01T09:27:14Z,42.805,6.029,13.3002,4.60002,2472.024,2017-12-01T11:28:43Z
2017-12-01T09:30:17Z,42.805,6.029,13.3001,4.60029,2472.032,2017-12-01T11:31:46Z
2017-12-01T09:33:20Z,42.805,6.029,13.3004,4.60074,2472.024,2017-12-01T11:34:49Z
2017-12-01T09:36:23Z,42.805,6.029,13.2958,4.60018,2472.024,2017-12-01T11:37:52Z
2017-12-01T09:39:26Z,42.805,6.029,13.2968,4.60101,2472.01,2017-12-01T11:40:55Z
2017-12-01T09:42:29Z,42.805,6.029,13.2968,4.60066,2472.024,2017-12-01T11:43:58Z
2017-12-01T09:45:32Z,42.805,6.029,13.2984,4.60033,2472.047,2017-12-01T11:47:00Z
2017-12-01T09:48:35Z,42.805,6.029,13.2986,4.59982,2472.01,2017-12-01T11:50:03Z
2017-12-01T09:51:38Z,42.805,6.029,13.2995,4.59986,2472.032,2017-12-01T11:53:06Z
2017-12-01T09:54:40Z,42.805,6.029,13.2964,4.60018,2472.024,2017-12-01T11:56:09Z
2017-12-01T09:57:43Z,42.805,6.029,13.2983,4.59993,2472.024,2017-12-01T11:59:12Z
2017-12-01T10:00:46Z,42.805,6.029,13.2984,4.60001,2472.047,2017-12-01T12:02:15Z
2017-12-01T10:03:49Z,42.805,6.029,13.2978,4.60007,2472.032,2017-12-01T12:05:18Z
2017-12-01T10:06:52Z,42.805,6.029,13.2975,4.60014,2472.002,2017-12-01T12:08:21Z
2017-12-01T10:09:55Z,42.805,6.029,13.2973,4.60023,2472.047,2017-12-01T12:11:24Z
2017-12-01T10:12:58Z,42.805,6.029,13.2961,4.60001,2472.002,2017-12-01T12:14:26Z
2017-12-01T10:16:01Z,42.805,6.029,13.2966,4.60012,2472.032,2017-12-01T12:17:29Z
2017-12-01T10:19:04Z,42.805,6.029,13.2964,4.60023,2472.024,2017-12-01T12:20:32Z
2017-12-01T10:22:06Z,42.805,6.029,13.2963,4.59990,2472.024,2017-12-01T12:23:35Z
2017-12-01T10:25:09Z,42.805,6.029,13.2992,4.60007,2472.01,2017-12-01T12:26:38Z
2017-12-01T10:28:12Z,42.805,6.029,13.3019,4.59990,2472.039,2017-12-01T12:29:41Z
2017-12-01T10:31:15Z,42.805,6.029,13.2997,4.60008,2472.002,2017-12-01T12:32:44Z
2017-12-01T10:34:18Z,42.805,6.029,13.2962,4.59985,2472.002,2017-12-01T12:35:47Z
2017-12-01T10:37:21Z,42.805,6.029,13.2958,4.59995,2472.01,2017-12-01T12:38:50Z
2017-12-01T10:40:24Z,42.805,6.029,13.2963,4.59981,2472.01,2017-12-01T12:41:53Z
2017-12-01T10:43:27Z,42.805,6.029,13.2996,4.59989,2472.002,2017-12-01T12:44:55Z
2017-12-01T10:46:30Z,42.805,6.029,13.2974,4.59992,2471.987,2017-12-01T12:47:58Z
2017-12-01T10:49:32Z,42.805,6.029,13.2968,4.59985,2472.024,2017-12-01T12:51:01Z
2017-12-01T10:52:35Z,42.805,6.029,13.2958,4.60000,2472.024,2017-12-01T12:54:04Z
2017-12-01T10:55:38Z,42.805,6.029,13.2996,4.59977,2472.024,2017-12-01T12:57:07Z
2017-12-01T10:58:41Z,42.805,6.029,13.2986,4.59991,2471.979,2017-12-01T13:00:10Z
2017-12-01T11:01:44Z,42.805,6.029,13.2963,4.59982,2472.002,2017-12-01T13:03:13Z
2017-12-01T11:04:47Z,42.805,6.029,13.2989,4.59979,2471.987,2017-12-01T13:06:16Z
2017-12-01T11:07:50Z,42.805,6.029,13.2979,4.59986,2472.047,2017-12-01T13:09:19Z
2017-12-01T11:10:53Z,42.805,6.029,13.2968,4.59989,2472.024,2017-12-01T13:12:21Z
2017-12-01T11:13:56Z,42.805,6.029,13.2970,4.59988,2472.002,2017-12-01T13:15:24Z
2017-12-01T11:16:58Z,42.805,6.029,13.2974,4.59996,2472.024,2017-12-01T13:18:27Z
2017-12-01T11:20:01Z,42.805,6.029,13.2972,4.59995,2472.002,2017-12-01T13:21:30Z
2017-12-01T11:23:04Z,42.805,6.029,13.2972,4.59993,2472.024,2017-12-01T13:24:33Z
2017-12-01T11:26:07Z,42.805,6.029,13.2975,4.59984,2472.024,2017-12-01T13:27:36Z
2017-12-01T11:29:10Z,42.805,6.029,13.2972,4.59985,2472.002,2017-12-01T13:30:39Z
2017-12-01T11:32:13Z,42.805,6.029,13.2968,4.59989,2472.024,2017-12-01T13:33:42Z
2017-12-01T11:35:16Z,42.805,6.029,13.2973,4.59988,2472.002,2017-12-01T13:36:45Z
2017-12-01T11:38:19Z,42.805,6.029,13.2971,4.59984,2471.979,2017-12-01T13:39:47Z
2017-12-01T11:41:22Z,42.805,6.029,13.2970,4.59989,2471.964,2017-12-01T13:42:50Z
2017-12-01T11:44:25Z,42.805,6.029,13.2973,4.59981,2471.987,2017-12-01T13:45:53Z
2017-12-01T11:47:27Z,42.805,6.029,13.2966,4.59986,2472.024,2017-12-01T13:48:56Z
2017-12-01T11:50:30Z,42.805,6.029,13.2972,4.59985,2472.002,2017-12-01T13:51:59Z
2017-12-01T11:53:33Z,42.805,6.029,13.2964,4.60001,2472.024,2017-12-01T13:55:02Z
2017-12-01T11:56:36Z,42.805,6.029,13.2976,4.59992,2472.024,2017-12-01T13:58:05Z
2017-12-01T11:59:39Z,42.805,6.029,13.2977,4.59993,2472.002,2017-12-01T14:01:08Z
2017-12-01T12:02:42Z,42.805,6.029,13.2991,4.59994,2472.002,2017-12-01T14:04:11Z
2017-12-01T12:05:45Z,42.805,6.029,13.2969,4.59991,2472.002,2017-12-01T14:07:13Z
2017-12-01T12:08:48Z,42.805,6.029,13.2975,4.59986,2472.002,2017-12-01T14:10:16Z
2017-12-01T12:11:51Z,42.805,6.029,13.2982,4.59985,2472.024,2017-12-01T14:13:19Z
2017-12-01T12:14:53Z,42.805,6.029,13.2970,4.59980,2471.979,2017-12-01T14:16:22Z
2017-12-01T12:17:56Z,42.805,6.029,13.2985,4.59989,2472.002,2017-12-01T14:19:25Z
2017-12-01T12:20:59Z,42.805,6.029,13.2979,4.60002,2471.979,2017-12-01T14:22:28Z
2017-12-01T12:24:02Z,42.805,6.029,13.2982,4.60018,2471.987,2017-12-01T14:25:31Z
2017-12-01T12:27:05Z,42.805,6.029,13.2984,4.60000,2471.979,2017-12-01T14:28:34Z
2017-12-01T12:30:08Z,42.805,6.029,13.2989,4.59995,2471.979,2017-12-01T14:31:37Z
2017-12-01T12:33:11Z,42.805,6.029,13.2974,4.59994,2472.002,2017-12-01T14:34:40Z
2017-12-01T12:36:14Z,42.805,6.029,13.2970,4.60006,2472.002,2017-12-01T14:37:42Z
2017-12-01T12:39:17Z,42.805,6.029,13.2983,4.59999,2472.002,2017-12-01T14:40:45Z
2017-12-01T12:42:19Z,42.805,6.029,13.2968,4.60008,2472.024,2017-12-01T14:43:48Z
2017-12-01T12:45:22Z,42.805,6.029,13.3000,4.59983,2471.979,2017-12-01T14:46:51Z
2017-12-01T12:48:25Z,42.805,6.029,13.2975,4.60003,2472.002,2017-12-01T14:49:54Z
2017-12-01T12:51:28Z,42.805,6.029,13.2963,4.60012,2472.024,2017-12-01T14:52:57Z
2017-12-01T12:54:31Z,42.805,6.029,13.2988,4.60006,2472.002,2017-12-01T14:56:00Z
2017-12-01T12:57:34Z,42.805,6.029,13.2970,4.59980,2472.047,2017-12-01T14:59:03Z
2017-12-01T13:00:37Z,42.805,6.029,13.2980,4.59992,2472.024,2017-12-01T15:02:06Z
2017-12-01T13:03:40Z,42.805,6.029,13.2976,4.60021,2472.002,2017-12-01T15:05:08Z
2017-12-01T13:06:43Z,42.805,6.029,13.2989,4.59990,2472.002,2017-12-01T15:08:11Z
2017-12-01T13:09:45Z,42.805,6.029,13.2966,4.59998,2472.002,2017-12-01T15:11:14Z
2017-12-01T13:12:48Z,42.805,6.029,13.2961,4.59993,2472.024,2017-12-01T15:14:17Z
2017-12-01T13:15:51Z,42.805,6.029,13.2963,4.59995,2472.01,2017-12-01T15:17:20Z
2017-12-01T13:18:54Z,42.805,6.029,13.2986,4.59985,2472.032,2017-12-01T15:20:23Z
2017-12-01T13:21:57Z,42.805,6.029,13.2955,4.59975,2472.016,2017-12-01T15:23:26Z
2017-12-01T13:25:00Z,42.805,6.029,13.2969,4.60001,2472.024,2017-12-01T15:26:29Z
2017-12-01T13:28:03Z,42.805,6.029,13.2969,4.60001,2472.024,2017-12-01T15:29:32Z
2017-12-01T13:31:06Z,42.805,6.029,13.2948,4.59992,2472.002,2017-12-01T15:32:34Z
2017-12-01T13:34:09Z,42.805,6.029,13.2954,4.60004,2472.01,2017-12-01T15:35:37Z
2017-12-01T13:37:11Z,42.805,6.029,13.2968,4.60028,2472.047,2017-12-01T15:38:40Z
2017-12-01T13:40:14Z,42.805,6.029,13.2950,4.60004,2472.024,2017-12-01T15:41:43Z
2017-12-01T13:43:17Z,42.805,6.029,13.2941,4.59990,2472.024,2017-12-01T15:44:46Z
2017-12-01T13:46:20Z,42.805,6.029,13.2945,4.59970,2471.987,2017-12-01T15:47:49Z
2017-12-01T13:49:23Z,42.805,6.029,13.2943,4.59966,2472.032,2017-12-01T15:50:52Z
2017-12-01T13:52:26Z,42.805,6.029,13.2939,4.59961,2472.024,2017-12-01T15:53:55Z
2017-12-01T13:55:29Z,42.805,6.029,13.2941,4.59964,2472.024,2017-12-01T15:56:58Z
2017-12-01T13:58:32Z,42.805,6.029,13.2936,4.59965,2472.032,2017-12-01T16:00:00Z
2017-12-01T14:01:35Z,42.805,6.029,13.2939,4.59960,2472.01,2017-12-01T16:03:03Z
2017-12-01T14:04:37Z,42.805,6.029,13.2938,4.59962,2472.047,2017-12-01T16:06:06Z
2017-12-01T14:07:40Z,42.805,6.029,13.2940,4.59958,2472.055,2017-12-01T16:09:09Z
2017-12-01T14:10:43Z,42.805,6.029,13.2939,4.59958,2472.01,2017-12-01T16:12:12Z
2017-12-01T14:13:46Z,42.805,6.029,13.2937,4.59958,2472.055,2017-12-01T16:15:15Z
2017-12-01T14:16:49Z,42.805,6.029,13.2940,4.59961,2472.047,2017-12-01T16:18:18Z
2017-12-01T14:19:52Z,42.805,6.029,13.2942,4.59964,2472.032,2017-12-01T16:21:21Z
2017-12-01T14:22:55Z,42.805,6.029,13.2939,4.59957,2472.069,2017-12-01T16:24:24Z
2017-12-01T14:25:58Z,42.805,6.029,13.2940,4.59958,2472.115,2017-12-01T16:27:26Z
2017-12-01T14:29:01Z,42.805,6.029,13.2938,4.59957,2472.077,2017-12-01T16:30:29Z
2017-12-01T14:32:04Z,42.805,6.029,13.2938,4.59957,2472.032,2017-12-01T16:33:32Z
2017-12-01T14:35:06Z,42.805,6.029,13.2943,4.59958,2472.055,2017-12-01T16:36:35Z
2017-12-01T14:38:09Z,42.805,6.029,13.2939,4.59958,2472.032,2017-12-01T16:39:38Z
2017-12-01T14:41:12Z,42.805,6.029,13.2940,4.59958,2472.069,2017-12-01T16:42:41Z
2017-12-01T14:44:15Z,42.805,6.029,13.2938,4.59959,2472.069,2017-12-01T16:45:44Z
2017-12-01T14:47:18Z,42.805,6.029,13.2938,4.59961,2472.077,2017-12-01T16:48:47Z
2017-12-01T14:50:21Z,42.805,6.029,13.2940,4.59959,2472.069,2017-12-01T16:51:50Z
2017-12-01T14:53:24Z,42.805,6.029,13.2943,4.59958,2472.115,2017-12-01T16:54:53Z
2017-12-01T14:56:27Z,42.805,6.029,13.2936,4.59959,2472.092,2017-12-01T16:57:55Z